DW9572 Weather Reports


Display with metric or nautical units.
time (UTC)temp
F
wind
direction
speed
MPH
gust
MPH
rain 1hr
in
rain 24hr
in
rain mn
in
humidity
%
barometer
mb
20260509103059 58 335 6.0 10.0 0.00 0.00 0.00 48 1018.7
20260509101541 56 49 2.0 9.0 0.00 0.00 0.00 52 1018.9
20260509100040 56 308 6.0 7.0 0.00 0.00 0.00 53 1018.7
20260509094525 56 345 3.0 8.0 0.00 0.00 0.00 50 1018.6
20260509093022 56 304 6.0 7.0 0.00 0.00 0.00 53 1018.6
20260509091504 55 311 3.0 4.0 0.00 0.00 0.00 51 1018.6
20260509090011 57 342 5.0 8.0 0.00 0.00 0.00 46 1018.5
20260509084547 57 359 0.0 0.0 0.00 0.00 0.00 49 1018.5
20260509083050 58 1 0.0 0.0 0.00 0.00 0.00 46 1018.4
20260509081531 59 62 0.0 1.0 0.00 0.00 0.00 42 1018.4
20260509080033 60 8 3.0 5.0 0.00 0.00 0.00 41 1018.2
20260509074534 61 233 7.0 15.0 0.00 0.00 0.00 44 1018.1
20260509073025 61 41 1.0 5.0 0.00 0.00 0.00 41 1017.8
20260509071524 60 82 7.0 12.0 0.00 0.00 0.00 44 1017.7
20260509070032 62 11 7.0 9.0 0.00 0.00 0.00 40 1017.1
20260509064521 62 311 7.0 9.0 0.00 0.00 0.00 41 1017.1
20260509063020 63 97 3.0 7.0 0.00 0.00 0.00 39 1017.2
20260509061520 65 293 1.0 16.0 0.00 0.00 0.00 37 1016.8
20260509060100 67 335 15.0 21.0 0.00 0.00 0.00 35 1016.4
20260509054600 67 360 11.0 21.0 0.00 0.00 0.00 35 1016.2
20260509053044 68 344 19.0 27.0 0.00 0.00 0.00 34 1016.0
20260509051543 67 323 11.0 22.0 0.00 0.00 0.00 34 1015.8
20260509050040 68 335 14.0 23.0 0.00 0.00 0.00 33 1015.7
20260509044518 68 335 14.0 20.0 0.00 0.00 0.00 32 1015.6
20260509043104 68 338 14.0 22.0 0.00 0.00 0.00 31 1015.6
20260509043002 68 343 16.0 22.0 0.00 0.00 0.00 31 1015.6
20260509041600 68 356 11.0 16.0 0.00 0.00 0.00 31 1015.5
20260509040048 68 349 9.0 14.0 0.00 0.00 0.00 29 1015.3
20260509034545 69 338 10.0 19.0 0.00 0.00 0.00 28 1014.9
20260509033058 69 332 11.0 18.0 0.00 0.00 0.00 27 1014.7
20260509031540 69 324 13.0 20.0 0.00 0.00 0.00 25 1014.5
20260509030039 70 326 11.0 20.0 0.00 0.00 0.00 23 1014.3
20260509024540 71 355 13.0 18.0 0.00 0.00 0.00 21 1014.0
20260509023036 72 347 14.0 23.0 0.00 0.00 0.00 20 1013.8
20260509021534 73 352 14.0 21.0 0.00 0.00 0.00 18 1013.7
20260509020022 74 350 16.0 23.0 0.00 0.00 0.00 17 1013.5
20260509014518 75 341 13.0 24.0 0.00 0.00 0.00 17 1013.4
20260509013001 76 336 17.0 24.0 0.00 0.00 0.00 17 1013.3
20260509011504 77 360 16.0 24.0 0.00 0.00 0.00 17 1013.2
20260509010101 78 343 10.0 21.0 0.00 0.00 0.00 18 1013.1
20260509004603 78 338 14.0 22.0 0.00 0.00 0.00 18 1013.2
20260509003102 79 336 10.0 20.0 0.00 0.00 0.00 16 1012.9
20260509001559 79 32 10.0 18.0 0.00 0.00 0.00 18 1012.8
20260509000058 80 358 9.0 16.0 0.00 0.00 0.00 17 1012.8
20260508234558 80 9 10.0 17.0 0.00 0.00 0.00 16 1012.7
20260508233039 80 309 5.0 18.0 0.00 0.00 0.00 18 1012.6
20260508231545 80 340 5.0 15.0 0.00 0.00 0.00 19 1012.7
20260508230020 79 285 0.0 12.0 0.00 0.00 0.00 18 1012.7
20260508224540 79 340 9.0 23.0 0.00 0.00 0.00 17 1012.9
20260508223100 79 301 10.0 20.0 0.00 0.00 0.00 17 1013.0
20260508223002 79 318 12.0 20.0 0.00 0.00 0.00 17 1012.9
20260508221610 79 205 12.0 26.0 0.00 0.00 0.00 17 1012.8
20260508220041 78 243 10.0 21.0 0.00 0.00 0.00 20 1012.9
20260508214546 79 304 10.0 19.0 0.00 0.00 0.00 19 1013.1
20260508213030 78 254 9.0 17.0 0.00 0.00 0.00 20 1013.0
20260508211524 79 312 9.0 22.0 0.00 0.00 0.00 18 1013.1
20260508210001 78 311 10.0 18.0 0.00 0.00 0.00 17 1013.1
20260508204559 77 278 13.0 18.0 0.00 0.00 0.00 19 1013.2
20260508203039 76 278 7.0 17.0 0.00 0.00 0.00 18 1013.1
20260508201540 76 301 11.0 19.0 0.00 0.00 0.00 16 1013.3
20260508200029 74 261 14.0 25.0 0.00 0.00 0.00 19 1013.1
20260508194515 74 278 16.0 28.0 0.00 0.00 0.00 20 1013.2
20260508193003 74 284 18.0 27.0 0.00 0.00 0.00 20 1013.0
20260508191500 74 249 17.0 25.0 0.00 0.00 0.00 22 1013.0
20260508190100 73 260 16.0 22.0 0.00 0.00 0.00 23 1013.1
20260508184559 74 256 15.0 24.0 0.00 0.00 0.00 25 1013.3
20260508183124 73 210 17.0 24.0 0.00 0.00 0.00 26 1013.4
20260508181610 73 203 17.0 24.0 0.00 0.00 0.00 26 1013.5
20260508180051 72 269 17.0 23.0 0.00 0.00 0.00 28 1013.5
20260508174549 71 248 14.0 23.0 0.00 0.00 0.00 29 1013.6
20260508173028 68 214 16.0 21.0 0.00 0.00 0.00 35 1013.7
20260508171533 66 191 13.0 19.0 0.00 0.00 0.00 39 1013.8
20260508170004 66 222 15.0 22.0 0.00 0.00 0.00 39 1013.7
20260508164504 66 255 17.0 21.0 0.00 0.00 0.00 40 1013.7
20260508163048 65 195 13.0 19.0 0.00 0.00 0.00 41 1013.7
20260508161542 65 191 10.0 20.0 0.00 0.00 0.00 42 1013.8
20260508160023 64 128 0.0 7.0 0.00 0.00 0.00 45 1013.7
20260508154520 63 14 0.0 9.0 0.00 0.00 0.00 45 1013.5
20260508153005 62 291 8.0 19.0 0.00 0.00 0.00 45 1013.5
20260508151504 61 183 4.0 14.0 0.00 0.00 0.00 47 1013.3
20260508150124 60 165 8.0 13.0 0.00 0.00 0.00 50 1013.3
20260508144604 58 198 2.0 7.0 0.00 0.00 0.00 54 1013.4
20260508143055 57 278 2.0 6.0 0.00 0.00 0.00 57 1013.4
20260508141602 54 127 0.0 0.0 0.00 0.00 0.00 61 1013.2
20260508140059 54 127 0.0 0.0 0.00 0.00 0.00 59 1013.2
20260508134551 54 266 0.0 0.0 0.00 0.00 0.00 59 1013.0
20260508133035 52 121 0.0 0.0 0.00 0.00 0.00 59 1012.9
20260508131533 52 62 0.0 0.0 0.00 0.00 0.00 60 1012.7
20260508130013 50 62 0.0 2.0 0.00 0.00 0.00 60 1012.6
20260508124511 52 127 0.0 4.0 0.00 0.00 0.00 58 1012.5
20260508123043 53 97 3.0 5.0 0.00 0.00 0.00 56 1012.4
20260508121540 56 77 3.0 7.0 0.00 0.00 0.00 48 1012.3
20260508120022 59 274 8.0 11.0 0.00 0.00 0.00 47 1012.3
20260508114529 59 281 8.0 11.0 0.00 0.00 0.00 47 1012.2
20260508113126 59 301 7.0 11.0 0.00 0.00 0.00 46 1012.1
20260508111601 58 278 7.0 16.0 0.00 0.00 0.00 47 1012.0
20260508110041 57 278 6.0 14.0 0.00 0.00 0.00 48 1011.8
20260508104553 57 283 6.0 12.0 0.00 0.00 0.00 48 1011.8